Location: Czu?�w
(50.1404°N, 18.9919°E)
Time: 03:33:08
(UTC+00:00)

MOS 1 - Pass Details

Date: 27 October 2020
Orbit: 878 x 891 km, 99.1° (Epoch: 24 November)

Event Time Altitude Azimuth Distance (km) Brightness Sun altitude
Exits shadow 18:17:55 65° 30° (NNE) 974 4.3 -27.6°
Drops below altitude 10° 18:22:59 10° 348° (NNW) 2,556 7.0 -28.3°
Sets 18:25:23 0° 346° (NNW) 3,498 7.8 -28.7°
